Flag for Germany Weather past 2 weeks in Fürth, Bavaria, Germany

Now
50 °F

Clear.


Feels Like: 50 °F
Forecast: 40 / 53 °F
Wind: 2 mph from East

Location: Nuernberg

Current Time: Apr 27, 2015 at 6:15:59 AM

Latest Report: Apr 27, 2015 at 5:20 AM


Visibility: 10 mi

Pressure: 29.59 "Hg

Humidity: 88%

Dew point: 46 °F

Location of FürthLocation

Historic Weather in Fürth — Graph

°F

Fürth temperature yesterday

Maximum temperature yesterday: 68 °F (at 1:50 PM)
Minimum temperature yesterday: 52 °F (at 12:20 AM)
Average temperature yesterday: 59 °F

Past Weeks' High & Low Weather Summary

 TemperatureHumidityPressure
High75 °F (Apr 15, 4:50 PM)100% (Apr 26, 4:50 AM)30.45 "Hg (Apr 26, 4:50 AM)
Low28 °F (Apr 19, 4:50 AM)19% (Apr 15, 5:20 PM)29.59 "Hg (Apr 27, 4:20 AM)
Average52 °F60%30.12 "Hg
* Reported Apr 12 4:20 AM — Apr 27 4:20 AM, Fürth, Weather by CustomWeather, © 2015

Note: Actual official high and low records may vary slightly from our data, if they occured in-between our weather recording intervals... More about our weather records

Advertising

Fürth weather history for previous 24 hours

 ConditionsComfort  
Time TempWeatherWind HumidityBarometerVisibility
4:20 AM
Mon, Apr 27
50 °FClear.2 mph88%29.59 "Hg10 mi
3:50 AM54 °FClear.2 mph82%29.62 "Hg10 mi
3:20 AM54 °FClear.1 mph82%29.65 "Hg10 mi
2:50 AM52 °FClear.1 mph82%29.62 "Hg10 mi
2:20 AM52 °FClear.2 mph88%29.65 "Hg10 mi
1:50 AM54 °FPassing clouds.3 mph82%29.65 "HgN/A
1:20 AM54 °FClear.2 mph77%29.65 "Hg10 mi
12:50 AM52 °FClear.5 mph82%29.65 "Hg10 mi
12:20 AM54 °FClear.5 mph77%29.68 "Hg10 mi
11:50 PM
Sun, Apr 26
54 °FClear.5 mph77%29.68 "Hg10 mi
11:20 PM54 °FClear.6 mph77%29.68 "Hg10 mi
10:50 PM55 °FClear.5 mph72%29.68 "Hg10 mi
10:20 PM59 °FClear.2 mph63%29.68 "Hg10 mi
9:50 PM57 °FClear.1 mph72%29.68 "Hg10 mi
9:20 PM57 °FSunny.1 mph72%29.68 "Hg10 mi
8:50 PM59 °FSunny.2 mph68%29.68 "Hg10 mi
8:20 PM64 °FSunny.2 mph56%29.68 "Hg10 mi
7:50 PM64 °FSunny.5 mph56%29.68 "Hg10 mi
7:20 PM66 °FPassing clouds.3 mph49%29.68 "HgN/A
6:50 PM68 °FSunny.2 mph46%29.71 "Hg10 mi
6:20 PM68 °FPartly sunny.5 mph43%29.71 "HgN/A
5:50 PM68 °FPassing clouds.6 mph46%29.71 "HgN/A
5:20 PM68 °FPassing clouds.7 mph46%29.71 "HgN/A
4:50 PM68 °FPartly sunny.6 mph43%29.71 "HgN/A
4:20 PM68 °FPartly sunny.6 mph46%29.74 "HgN/A
3:50 PM68 °FPartly sunny.5 mph49%29.74 "HgN/A
3:20 PM64 °FPartly sunny.5 mph52%29.77 "HgN/A
2:50 PM64 °FBroken clouds.8 mph56%29.77 "HgN/A
2:20 PM68 °FBroken clouds.7 mph49%29.77 "HgN/A
1:50 PM68 °FScattered showers. Broken clouds.10 mph53%29.80 "HgN/A
1:20 PM64 °FScattered clouds.7 mph56%29.80 "HgN/A
12:50 PM63 °FScattered clouds.7 mph64%29.80 "HgN/A
12:20 PM63 °FPartly sunny.7 mph64%29.83 "HgN/A
11:50 AM61 °FPartly sunny.9 mph68%29.83 "HgN/A
11:20 AM61 °FScattered clouds.5 mph68%29.83 "HgN/A
10:50 AM61 °FScattered clouds.6 mph72%29.83 "HgN/A
10:20 AM59 °FScattered clouds.6 mph77%29.83 "HgN/A
9:50 AM57 °FScattered clouds.5 mph82%29.83 "HgN/A
9:20 AM55 °FBroken clouds.5 mph88%29.83 "HgN/A
8:50 AM55 °FBroken clouds.5 mph88%29.83 "HgN/A
8:20 AM54 °FBroken clouds.3 mph94%29.83 "HgN/A
7:50 AM54 °FPartly sunny.3 mph94%29.86 "HgN/A
7:20 AM54 °FBroken clouds.3 mph94%29.83 "HgN/A
6:50 AM54 °FPartly cloudy.2 mph94%29.83 "HgN/A
6:20 AM54 °FPassing clouds.3 mph94%29.83 "HgN/A
Weather by CustomWeather, © 2015

See weather overviewHow to use our weather pages